Lapse_Rate
6.5 6.4 6.3 6.3 6.0 6.6 6.5 5.9 5.8 5.4 5.3 4.9 5.5 5.1 5.0 5.0 5.3 5.3 5.4 5.2 5.2 5.3 5.4 5.5 5.3 5.0 4.9 4.9 4.9 4.9 5.1 5.1 5.2 5.4 5.3 5.1 4.8 5.0 5.2 5.2 5.2 5.3 5.2 5.2 5.2 5.2 5.1 5.0 5.0
6.6 6.7 6.4 6.3 6.9 7.2 6.4 6.1 5.7 5.3 5.5 5.4 5.1 5.2 5.3 5.4 5.4 5.3 5.1 5.2 5.3 5.3 5.2 5.5 5.5 5.1 5.0 5.0 5.1 5.1 5.1 5.1 5.2 5.2 5.3 5.2 4.9 4.8 4.9 5.1 5.2 5.3 5.3 5.4 5.4 5.4 5.2 5.1 5.0
6.8 6.8 6.9 6.1 7.0 6.9 6.5 6.0 5.5 5.6 5.4 4.9 5.1 5.0 5.3 5.0 5.3 5.0 4.9 5.0 5.2 5.3 5.2 5.4 5.4 5.2 5.2 5.2 5.2 5.2 5.1 5.0 5.1 5.1 5.5 5.3 5.2 5.0 4.8 4.9 5.1 5.2 5.4 5.6 5.6 5.5 5.3 5.3 5.2
7.0 7.0 6.7 7.1 7.1 6.4 6.4 6.0 5.6 5.7 5.7 5.4 5.2 5.1 5.0 5.4 5.4 5.1 5.2 5.2 5.0 5.2 5.4 5.5 5.3 5.1 5.3 5.2 5.2 5.1 4.9 5.0 4.9 5.1 5.4 5.2 5.3 5.0 4.8 4.8 4.8 5.1 5.2 5.6 5.6 5.4 5.4 5.4 5.2
7.2 7.2 6.8 7.2 6.9 6.5 6.2 5.8 5.7 5.7 5.5 5.5 5.2 5.5 5.3 5.3 5.4 5.3 5.1 5.1 5.4 5.2 5.6 5.3 5.4 5.2 5.1 5.2 5.3 4.9 5.0 5.0 5.0 5.1 5.3 5.3 5.3 5.2 5.0 5.0 5.0 5.1 5.1 5.1 5.5 5.4 5.4 5.2 5.2
7.2 7.3 8.0 7.4 6.8 6.3 6.0 5.8 6.1 5.9 6.3 6.0 5.4 5.5 5.3 5.2 5.3 5.1 4.9 4.8 5.2 5.1 5.8 5.3 5.1 5.3 5.0 5.2 5.3 5.0 5.1 5.0 5.0 5.1 5.3 5.2 5.2 5.3 5.1 5.0 5.0 5.1 5.2 5.3 5.3 5.2 5.2 5.2 5.1
7.3 6.9 7.1 7.1 6.7 6.5 6.2 6.5 6.0 6.3 6.3 6.4 5.9 5.4 5.3 5.3 5.3 5.0 4.9 5.0 5.3 5.4 5.9 5.6 5.1 5.3 5.2 5.1 5.2 5.2 5.1 5.2 5.1 5.1 5.2 5.0 5.2 5.4 5.3 5.2 5.2 5.2 5.2 5.2 5.2 5.3 5.2 5.3 5.2
7.2 6.6 6.8 6.9 7.0 6.4 6.6 6.8 6.6 5.9 6.7 6.6 6.3 6.4 6.0 5.7 5.1 5.3 5.3 5.0 5.2 5.4 5.7 5.9 5.4 5.5 5.3 5.0 5.3 5.3 5.1 5.1 5.1 5.1 5.1 5.1 5.1 5.2 5.2 5.4 5.4 5.3 5.2 5.2 5.2 5.2 5.3 5.1 5.2
7.1 7.0 7.1 6.7 6.8 6.5 6.7 6.4 6.6 6.5 6.8 6.4 6.5 6.3 6.0 5.8 5.6 5.2 5.7 5.6 5.7 5.6 5.9 6.3 5.9 5.6 5.5 5.3 5.4 5.3 5.1 5.0 5.0 5.2 5.3 5.1 5.0 5.2 5.2 5.3 5.2 5.2 5.2 5.2 5.4 5.2 5.2 5.2 5.1
7.0 7.0 6.7 6.6 6.6 6.6 6.4 6.2 6.6 6.2 6.2 6.9 6.8 6.0 5.7 5.7 5.6 5.9 5.9 5.8 5.7 5.9 6.3 6.5 5.9 5.7 5.6 5.4 5.3 5.3 5.1 5.0 5.2 5.4 5.3 5.3 5.2 5.2 4.9 5.1 5.1 4.8 5.1 5.3 5.1 5.1 5.2 5.2 5.1
7.1 6.8 7.0 6.9 6.7 6.7 6.8 6.4 6.6 6.2 6.2 6.8 6.4 5.7 5.8 5.7 5.8 5.9 6.1 5.9 5.9 6.3 6.5 6.3 5.9 5.8 5.6 5.5 5.1 5.3 5.2 5.2 5.2 5.5 5.4 5.3 5.2 5.1 5.0 5.1 5.0 5.0 4.9 5.0 5.1 5.2 5.3 5.3 5.1
7.3 7.3 7.0 7.1 7.1 6.8 6.5 6.7 6.2 6.4 6.4 6.8 6.2 5.6 6.0 6.0 5.9 6.0 6.0 5.7 6.1 6.6 6.6 6.1 6.1 6.0 5.6 5.5 5.3 5.4 5.3 5.3 5.3 5.5 5.4 5.2 5.3 5.1 5.0 5.1 5.1 5.1 4.9 4.9 5.1 5.2 5.4 5.5 5.1
6.6 7.0 7.1 7.2 7.1 7.0 7.0 6.7 6.3 6.8 6.4 6.9 6.9 6.5 6.3 6.3 6.3 6.3 6.3 6.2 6.3 6.4 6.5 6.4 6.1 6.0 5.8 5.4 5.4 5.4 5.4 5.2 5.2 5.4 5.4 5.3 5.3 5.3 5.2 5.2 5.1 5.2 5.1 5.0 5.3 5.4 5.4 5.5 5.3
6.4 6.6 6.5 6.6 6.9 7.3 6.6 6.9 6.1 6.8 6.4 6.7 6.9 6.8 6.6 6.5 6.8 6.8 6.8 6.6 6.5 6.5 6.8 6.5 6.2 6.0 5.7 5.4 5.4 5.3 5.2 5.2 5.4 5.4 5.4 5.3 5.3 5.4 5.3 5.4 5.4 5.5 5.4 5.3 5.5 5.5 5.4 5.4 5.5
6.3 6.9 6.6 6.6 6.7 7.2 6.5 6.6 6.3 6.6 6.7 6.6 6.6 6.8 6.8 7.2 7.1 7.0 6.8 6.7 6.7 6.4 6.3 6.1 6.1 6.0 5.8 5.5 5.4 5.4 5.2 5.3 5.5 5.5 5.4 5.3 5.4 5.5 5.3 5.5 5.5 5.6 5.7 5.4 5.4 5.4 5.4 5.4 5.5
7.5 7.0 7.5 7.3 7.2 7.3 6.8 6.6 6.6 6.2 6.8 6.6 6.0 6.7 6.7 7.2 6.9 6.7 6.6 6.7 6.3 6.3 6.1 6.0 5.9 5.9 5.7 5.6 5.5 5.3 5.3 5.4 5.3 5.3 5.5 5.4 5.6 5.7 5.6 5.8 5.7 5.7 5.8 5.6 5.5 5.5 5.6 5.5 5.5
8.4 8.3 8.0 7.4 7.3 7.1 6.9 6.6 6.5 6.2 6.1 6.2 5.9 6.1 6.6 6.5 6.6 6.4 6.5 6.6 6.4 6.3 6.1 6.0 6.0 6.0 5.9 5.8 5.6 5.5 5.5 5.3 5.2 5.3 5.4 5.5 5.6 5.9 5.8 5.7 5.7 5.8 5.9 5.8 5.7 5.7 5.6 5.6 5.7
8.9 9.1 8.0 7.7 7.5 7.1 7.2 6.6 6.7 6.3 5.9 6.1 6.0 5.9 6.0 6.4 6.4 6.3 6.3 6.4 6.3 6.0 5.9 6.0 6.1 6.1 6.0 5.7 5.6 5.3 5.3 5.2 5.2 5.2 5.3 5.5 5.7 5.9 5.9 5.6 5.9 6.1 6.0 6.1 5.9 5.9 5.8 5.8 5.9
8.4 8.6 8.3 7.6 7.6 7.3 7.2 6.9 6.5 6.5 6.0 6.2 6.1 5.9 5.7 6.0 6.0 5.7 6.1 6.0 6.2 6.2 6.2 6.1 6.1 6.0 5.9 5.8 5.6 5.4 5.4 5.2 5.3 5.3 5.3 5.6 5.7 5.7 5.9 5.8 5.9 6.1 6.1 6.1 6.1 6.0 5.9 5.9 5.9
8.4 8.4 8.4 7.5 7.3 7.2 7.2 7.2 6.6 6.4 6.2 6.1 6.2 6.1 5.9 5.7 5.9 5.8 5.8 5.9 6.0 6.1 6.1 6.2 6.2 6.0 5.7 5.6 5.5 5.5 5.4 5.4 5.5 5.3 5.5 5.7 5.6 5.7 5.8 6.0 6.0 6.0 6.0 6.0 5.9 5.8 5.8 5.7 6.0
8.9 8.6 8.5 8.1 7.0 7.2 7.2 7.1 6.9 6.7 6.7 6.6 6.2 6.1 6.0 6.0 5.9 5.7 5.6 5.9 5.9 5.9 5.9 5.9 6.0 6.1 5.9 5.8 5.7 5.6 5.4 5.5 5.5 5.7 5.6 5.7 5.7 5.8 5.8 6.1 6.1 6.1 6.2 6.1 6.0 5.9 5.9 5.9 6.3
9.4 8.1 7.8 7.4 7.5 8.4 7.5 9.0 7.3 7.0 6.8 6.8 6.7 6.3 6.0 5.8 5.7 5.9 5.8 5.6 5.6 5.8 5.7 5.7 5.8 6.0 5.9 5.9 5.8 5.7 5.7 5.7 5.6 5.6 5.6 5.8 5.7 5.8 5.8 6.1 6.3 6.2 6.1 6.0 6.1 6.2 6.2 6.3 6.2
8.3 8.4 7.8 7.6 7.9 8.0 7.7 8.5 7.7 7.1 6.9 6.7 6.6 6.7 6.7 6.2 5.8 5.7 5.7 5.8 5.8 5.6 5.7 5.7 5.8 6.0 6.0 6.0 5.9 5.9 5.9 5.9 5.7 5.6 5.6 5.7 5.7 5.8 5.9 6.2 6.4 6.3 6.0 6.1 6.0 6.3 6.5 6.4 6.4
8.4 7.8 7.7 7.8 8.2 9.4 8.1 8.4 8.9 7.7 7.4 7.2 7.0 7.0 6.9 6.8 6.3 5.8 5.7 5.7 5.6 5.8 5.9 6.0 6.1 6.1 6.1 6.0 5.8 5.9 6.1 6.1 5.9 5.7 5.6 5.5 5.5 5.8 5.8 6.0 6.2 6.3 6.2 6.2 6.1 6.2 6.3 6.5 6.5
8.0 8.9 9.7 9.8 9.8 9.7 8.1 8.5 8.3 7.8 7.6 7.5 7.3 7.2 7.2 7.1 6.9 6.5 6.2 5.9 5.8 5.7 5.9 6.1 6.1 6.2 6.2 6.0 5.9 5.8 6.1 6.0 5.9 5.7 5.5 5.1 4.9 5.4 5.7 5.9 6.2 6.1 6.1 6.2 6.3 6.2 6.3 6.5 6.6
8.6 9.3 9.6 9.5 9.8 9.8 8.1 9.2 8.0 7.6 7.8 7.6 7.6 7.2 7.2 7.6 7.1 7.0 6.4 6.3 6.0 5.8 5.9 5.9 5.9 5.9 6.0 5.9 5.8 5.8 6.0 6.0 5.9 5.8 5.7 5.8 5.5 5.6 5.9 5.9 6.0 6.0 6.0 5.8 6.2 6.2 6.4 6.5 6.5
8.9 8.9 9.2 9.7 9.4 9.7 9.4 8.4 7.5 7.8 7.6 7.3 6.8 6.9 7.6 7.7 7.3 7.1 6.8 6.6 6.4 6.2 6.2 6.0 5.9 5.9 5.9 5.8 6.0 6.0 6.1 6.0 6.0 6.0 5.8 5.8 5.9 5.9 6.1 6.0 5.7 5.9 6.0 5.7 6.0 6.1 6.2 6.4 6.4
8.9 9.1 9.4 9.6 9.7 9.6 9.6 9.0 8.4 7.3 7.7 7.5 7.1 7.4 7.8 8.0 7.7 7.3 7.0 6.8 6.6 6.4 6.3 6.2 6.1 6.1 6.1 6.0 5.9 5.9 5.9 6.0 6.1 6.1 5.9 5.8 5.7 5.8 5.8 6.0 5.9 6.1 5.9 6.0 6.0 6.1 6.3 6.4 6.4
9.0 9.3 9.3 9.5 9.6 9.8 9.9 8.8 7.9 8.0 7.9 7.8 8.2 7.9 8.2 8.1 7.5 7.2 7.1 7.0 6.9 6.7 6.6 6.6 6.6 6.4 6.4 6.2 6.1 6.1 5.9 5.9 6.0 6.0 5.9 5.9 5.8 5.7 5.6 5.6 5.7 5.9 6.1 6.1 6.1 6.0 6.0 6.1 6.2
9.2 9.6 9.6 9.6 9.6 9.6 9.6 8.4 7.6 7.5 7.9 7.8 7.6 7.8 7.6 7.6 7.5 7.5 7.4 7.3 7.4 7.1 6.9 7.0 6.9 6.8 6.6 6.5 6.5 6.5 6.3 6.2 6.1 6.0 6.1 6.2 6.2 6.1 6.0 6.0 6.0 5.9 6.1 6.2 6.0 5.9 5.9 6.0 6.1
Wind_Speed
11 5 3 3 4 2 11 9 12 11 9 6 8 6 9 7 7 10 16 7 6 8 12 10 9 9 12 12 14 14 14 13 13 13 13 13 12 12 12 14 14 15 14 14 16 15 16 16 15
4 2 3 4 1 9 9 8 11 8 10 12 12 10 7 6 4 14 10 9 11 6 8 12 10 9 11 11 12 14 14 14 13 14 14 14 13 10 12 13 14 13 14 14 14 14 14 13 14
2 2 4 3 8 10 8 8 9 11 8 7 5 9 7 3 7 13 13 13 10 11 8 12 10 10 10 10 12 13 13 13 13 13 13 13 12 11 12 12 13 13 12 13 12 12 12 11 12
2 4 4 2 13 10 10 9 9 9 8 4 8 9 9 10 10 6 11 11 8 7 12 12 8 10 11 11 12 13 12 13 11 11 13 12 12 11 10 11 11 11 11 11 11 11 11 9 8
4 2 3 9 12 10 10 8 4 2 4 7 1 8 14 12 13 16 12 10 8 8 12 13 7 11 11 11 12 11 11 12 9 9 11 10 11 10 9 9 10 10 9 9 9 8 8 7 6
3 4 5 10 11 8 7 5 3 4 6 7 14 17 10 14 16 11 14 10 9 5 7 12 8 6 11 11 11 11 9 10 8 8 9 8 8 8 7 7 8 8 8 8 8 7 6 7 6
4 3 9 11 8 6 6 3 4 6 7 8 12 13 12 19 14 10 10 9 11 10 6 7 12 11 8 9 9 9 9 8 6 5 5 6 6 6 6 4 5 6 5 6 6 6 5 5 6
2 3 7 5 5 6 5 8 7 9 12 10 16 8 20 20 16 13 10 9 7 6 7 7 7 10 10 12 8 9 8 6 5 6 4 3 6 4 4 5 4 4 3 2 3 3 3 3 5
2 3 8 5 3 7 10 9 8 10 12 3 2 13 24 22 17 13 14 12 9 10 9 6 6 7 6 7 9 8 6 5 5 6 4 7 1 3 4 10 11 9 8 9 7 2 0 1 4
3 3 5 2 2 8 8 6 12 9 7 11 18 22 23 22 16 14 16 12 12 11 9 6 3 6 9 7 9 6 6 7 4 3 2 3 1 1 4 1 10 6 2 5 8 12 5 9 3
2 5 5 5 5 11 9 8 8 8 9 14 21 24 18 19 16 17 16 15 13 10 8 6 7 5 8 6 7 7 7 6 7 4 4 0 3 2 3 1 12 11 7 10 7 11 10 6 3
5 5 5 6 9 12 8 8 8 6 8 16 20 23 22 20 18 16 14 13 10 10 8 8 9 7 6 6 7 5 4 4 5 3 4 3 5 1 2 0 7 10 9 11 14 12 12 7 1
6 7 7 8 10 11 10 10 8 6 8 18 20 20 20 18 18 15 13 10 10 10 9 10 9 8 6 5 5 4 3 6 3 5 3 4 5 3 6 1 3 8 9 11 10 12 8 8 8
4 3 6 6 11 11 9 11 7 7 16 20 21 19 16 16 16 13 12 11 10 9 11 11 10 9 9 7 5 4 5 3 4 4 3 5 7 4 7 3 2 3 7 8 7 9 8 8 8
3 8 5 4 7 7 10 9 7 13 18 20 20 17 17 15 14 12 11 11 11 10 10 10 9 11 9 7 7 7 5 4 3 5 4 6 7 3 6 3 4 2 6 9 7 7 7 4 5
7 9 5 1 6 4 9 9 11 13 18 21 20 18 15 15 16 13 12 12 12 11 11 9 9 10 10 8 7 6 5 3 3 4 4 2 4 5 3 2 3 5 3 5 6 5 5 5 5
4 8 6 7 4 6 8 11 13 13 16 19 18 17 16 14 15 14 13 12 11 12 11 10 10 9 8 7 6 6 4 5 4 5 2 2 2 2 4 3 3 5 3 4 6 5 6 6 5
8 3 2 2 5 4 7 10 14 13 14 17 17 15 16 16 16 15 14 13 11 11 12 13 11 11 8 5 6 6 5 5 6 5 2 1 1 1 3 4 4 2 4 5 6 6 5 4 4
8 7 3 5 6 4 5 9 14 15 13 15 15 15 15 16 17 14 14 13 12 12 12 12 12 10 9 8 7 6 6 5 5 5 3 3 3 2 1 3 4 5 3 5 6 6 6 5 4
10 6 4 6 8 1 4 8 11 16 14 14 15 15 15 16 16 14 14 13 14 15 14 13 13 12 10 8 6 4 3 4 4 5 3 5 3 2 3 1 3 3 5 5 5 4 5 4 4
8 5 5 1 9 4 6 7 11 14 13 13 15 14 15 15 15 16 16 16 15 14 14 14 13 13 12 11 6 5 5 5 5 5 5 5 4 4 2 2 3 4 2 4 5 6 3 3 4
6 3 3 9 9 1 6 3 12 14 17 16 16 17 16 15 13 12 15 16 16 15 15 14 14 14 12 12 9 8 5 5 5 4 1 3 4 5 5 3 4 2 0 3 4 4 2 5 5
6 2 8 8 6 4 6 5 8 13 15 20 18 18 18 16 16 16 15 13 14 13 13 13 13 12 12 13 11 8 8 6 5 4 0 2 4 6 5 4 5 4 4 4 1 3 5 4 3
4 8 9 6 3 3 5 6 9 7 13 17 19 19 17 16 14 12 12 12 11 10 10 10 11 11 12 12 12 11 9 7 6 5 4 3 4 6 5 4 4 5 3 4 5 4 4 5 3
8 13 3 2 2 6 4 4 9 3 2 3 17 18 18 15 13 12 11 12 12 11 11 10 11 12 12 13 13 13 11 10 8 8 7 4 4 4 7 5 5 6 6 5 5 4 3 4 4
11 10 8 1 5 5 4 4 6 2 3 5 4 11 13 15 15 15 13 11 11 12 12 12 12 12 12 13 13 12 12 8 8 8 7 5 4 3 3 6 6 7 7 7 6 5 6 5 6
7 8 7 7 3 5 4 9 13 8 4 3 5 7 8 9 12 13 12 10 9 11 12 12 12 11 12 14 12 13 12 12 10 9 8 8 6 5 5 5 6 5 7 7 6 6 5 4 7
9 2 6 7 3 4 7 4 8 7 7 6 6 7 5 6 9 9 10 12 11 11 11 11 12 12 11 12 13 12 13 13 12 9 10 9 6 5 4 5 5 6 5 7 7 6 7 7 6
6 9 5 4 5 3 5 9 11 9 9 8 8 7 8 9 9 9 9 7 10 12 11 13 12 13 12 12 12 11 11 12 12 11 11 10 10 8 7 6 7 8 8 8 8 8 6 7 8
7 7 6 9 10 3 7 8 5 10 9 7 7 5 5 3 3 6 7 7 7 9 10 11 11 11 11 10 11 11 11 10 11 11 11 10 10 10 9 9 9 9 9 9 8 9 9 9 9
Wind_Direction
188 197 268 254 218 123 70 78 104 110 106 86 93 56 95 37 16 104 128 142 178 130 131 139 102 126 124 121 124 123 118 120 118 116 110 97 93 98 104 106 100 98 99 101 101 102 101 100 100
134 248 249 282 186 86 74 85 88 70 95 109 94 109 54 78 67 116 125 148 155 139 123 124 116 128 133 131 128 124 123 120 119 111 106 99 89 88 92 97 102 106 96 94 95 99 103 102 99
144 254 291 318 45 51 80 78 94 108 126 143 109 62 100 86 136 125 128 148 143 151 123 106 128 129 130 130 125 124 123 122 120 115 109 100 88 77 92 90 94 93 95 97 95 96 98 104 109
286 204 223 58 84 56 58 83 113 114 111 102 108 86 89 103 121 125 140 135 142 156 138 122 131 130 126 128 127 125 120 116 109 115 102 99 89 80 84 85 90 93 92 93 95 101 101 99 94
227 252 173 87 79 76 75 87 93 76 87 138 164 97 114 120 116 139 138 141 151 163 130 137 143 134 129 131 125 122 126 111 104 105 100 95 88 84 76 81 83 89 91 93 96 93 95 91 81
240 267 159 92 94 93 84 65 44 72 107 116 118 118 121 116 136 137 142 156 151 148 142 125 132 119 128 129 128 128 118 121 118 106 102 108 96 92 87 84 86 87 88 85 86 91 93 86 78
327 317 74 101 110 109 75 55 61 94 111 126 130 132 133 148 137 155 138 153 175 144 154 146 147 128 121 115 123 126 131 132 125 112 111 95 105 109 117 98 89 84 88 93 92 86 80 79 71
290 269 114 102 92 90 102 87 90 85 96 105 133 152 153 149 150 150 147 167 173 157 163 170 166 141 155 150 139 134 140 138 132 118 115 130 157 145 135 162 110 64 67 97 81 78 59 58 70
226 197 101 77 33 119 126 120 87 101 129 110 229 145 148 148 160 147 171 187 181 182 165 191 156 140 134 144 140 148 144 140 172 165 167 216 302 114 185 75 71 23 24 3 349 310 237 232 141
255 72 74 61 134 139 134 114 128 132 116 115 115 128 145 154 157 167 182 184 192 189 171 165 185 165 150 177 154 177 160 178 167 173 193 236 17 342 302 156 129 144 85 333 339 319 301 239 205
153 108 123 75 110 135 129 121 136 138 110 144 143 145 149 152 171 183 189 196 191 185 162 174 192 214 181 158 185 175 182 181 172 205 255 23 301 305 345 54 142 146 199 171 235 260 262 284 255
124 132 151 126 136 135 130 131 131 81 96 139 148 153 160 172 181 191 194 192 185 175 181 198 190 207 208 165 203 179 197 196 211 173 236 250 267 337 330 81 167 164 177 170 204 229 229 206 236
107 140 135 147 144 133 135 122 132 95 155 140 149 158 167 175 184 199 197 188 187 177 178 205 216 190 205 199 204 211 225 214 193 218 214 285 285 21 308 320 151 166 196 189 210 209 205 212 195
89 107 105 149 138 136 134 128 148 121 146 148 160 167 176 184 180 183 194 193 185 183 191 183 209 190 205 210 211 227 229 227 247 268 272 263 284 353 307 5 15 148 155 168 191 180 195 196 172
90 158 132 69 132 125 136 151 97 143 154 161 166 172 180 192 193 191 196 199 195 192 196 191 207 194 195 196 202 213 235 206 279 287 271 266 280 295 312 350 30 23 121 166 180 169 178 192 164
142 151 151 143 151 143 227 137 139 160 163 171 174 179 192 190 193 197 198 206 188 200 187 200 204 200 182 189 189 222 224 260 284 289 293 276 265 285 310 353 5 56 129 154 159 176 154 150 146
91 138 88 147 219 163 222 130 154 171 170 172 180 180 188 209 209 195 194 200 185 191 184 199 209 215 187 181 212 222 237 234 267 295 299 96 228 272 314 84 57 68 80 127 147 162 154 162 153
346 352 100 144 156 202 159 122 156 177 176 178 182 186 187 202 206 200 200 192 196 181 193 202 199 207 207 199 220 229 234 236 247 266 294 269 155 170 311 64 79 117 114 127 151 158 165 158 136
308 305 265 124 140 158 168 149 167 176 186 177 183 188 189 197 200 202 204 203 200 197 196 202 207 209 208 209 217 218 232 226 247 257 254 252 243 124 79 77 115 104 73 92 152 150 163 157 160
314 281 183 108 144 215 155 184 176 181 187 187 189 187 192 190 187 196 202 212 209 203 209 206 211 199 204 208 221 240 255 236 270 275 277 247 245 182 148 60 100 67 115 127 140 187 157 154 164
302 279 136 109 154 131 179 170 184 192 192 192 198 203 200 199 198 191 201 210 210 216 212 214 211 212 207 216 202 200 224 242 242 229 231 200 212 192 141 153 78 134 178 143 155 168 192 138 177
296 13 212 151 191 159 231 92 184 186 197 200 201 205 211 215 217 236 205 210 217 218 215 214 217 213 206 201 200 211 231 234 209 240 310 228 202 193 170 160 137 182 270 134 181 181 183 235 166
11 103 165 168 201 237 161 252 101 186 203 203 207 202 208 209 215 213 224 231 224 221 215 213 211 216 218 200 215 197 222 208 226 224 312 249 174 215 197 175 158 163 229 154 209 181 233 180 293
154 135 135 160 226 187 95 281 129 164 221 206 207 211 210 204 211 215 225 225 238 229 218 212 207 213 211 207 207 211 204 224 227 222 247 208 185 178 199 191 185 167 183 199 205 211 207 271 310
235 219 189 205 185 54 119 229 55 20 135 249 197 205 210 212 212 218 217 227 226 221 208 207 205 210 207 205 207 209 209 211 224 239 229 291 223 212 155 196 198 179 192 202 227 207 227 219 241
214 277 307 290 19 46 130 53 87 76 142 151 141 184 203 216 214 219 221 220 221 224 211 207 202 210 204 205 206 208 209 211 219 222 256 240 258 208 143 195 198 191 189 204 203 220 235 207 229
141 233 14 284 176 256 69 105 87 94 124 191 205 163 200 213 229 220 225 210 220 223 221 219 215 206 210 205 205 205 204 216 214 228 218 229 231 234 211 201 213 212 196 202 198 235 219 248 230
288 18 218 221 221 288 113 102 96 95 98 117 142 173 167 145 193 198 214 225 216 228 225 224 225 218 212 216 204 206 207 210 213 216 228 243 242 234 247 206 212 237 222 210 210 225 204 225 237
173 208 236 324 299 308 258 94 102 110 118 117 116 137 157 167 186 191 203 213 222 214 219 226 213 220 215 212 212 213 212 210 209 214 219 227 236 228 224 222 238 235 233 225 218 243 259 221 236
280 305 252 232 174 259 311 96 142 123 122 132 122 122 126 136 207 245 242 237 233 231 220 223 226 222 218 218 215 208 211 215 213 215 218 222 224 232 230 227 223 228 227 232 227 233 242 233 230